Weather History for Mosinee, WI

Change the Weather History Date:

Wednesday, March 6, 2013

  Actual Average Record
Temperature  
Mean Temperature 24 °F -  
Max Temperature 30 °F 29 °F 50 °F (2005)
Min Temperature 19 °F 12 °F -2 °F (2003)
Degree Days  
Heating Degree Days 40    
Moisture  
Dew Point 19 °F    
Average Humidity 82    
Maximum Humidity 93    
Minimum Humidity 64    
Precipitation  
Precipitation 0.00 in - - ()
Sea Level Pressure  
Sea Level Pressure 30.23 in    
Wind  
Wind Speed 10 mph (NW)    
Max Wind Speed 14 mph    
Max Gust Speed 17 mph    
Visibility 10 miles    
Events      
Averages and records for this station are not official NWS values.
T = Trace of Precipitation, MM = Missing Value Source: NWS Daily Summary

Daily Weather History Graph

Daily Weather History Graph

Search for Another Location

Airport:

Trip Planner

Search our weather history database for the weather conditions in past years. The results will help you decide how hot, cold, wet, or windy it might be!

Date:

Astronomy

Mar. 06, 2013 Rise Set
Actual Time 6:27 AM CST 5:53 PM CST
Civil Twilight 5:57 AM CST 6:22 PM CST
Nautical Twilight 5:24 AM CST 6:56 PM CST
Astronomical Twilight 4:49 AM CST 7:30 PM CST
Moon 2:46 AM CST (3/6) 12:24 PM CST (3/6)
Length of Visible Light 12h 24m
Length of Day
11h 26m
Waning Crescent, 29% of the Moon is Illuminated
Mar 6
Waning Crescent
Mar 11
New
Mar 19
First Quarter
Mar 27
Full
Apr 2
Last Quarter

Hourly Weather History & Observations

Time (CST) Temp. Windchill Dew Point Humidity Pressure Visibility Wind Dir Wind Speed Gust Speed Precip Events Conditions
12:15 AM 24.8 °F 12.9 °F 21.2 °F 86% 30.15 in 10.0 mi North 13.8 mph - N/A   Overcast
12:35 AM 24.8 °F 15.3 °F 21.2 °F 86% 30.15 in 10.0 mi North 9.2 mph - N/A   Overcast
12:55 AM 24.8 °F 15.3 °F 21.2 °F 86% 30.15 in 10.0 mi North 9.2 mph - N/A   Overcast
1:15 AM 24.8 °F 14.0 °F 21.2 °F 86% 30.16 in 10.0 mi NNW 11.5 mph - N/A   Overcast
1:35 AM 23.0 °F 12.4 °F 21.2 °F 93% 30.16 in 10.0 mi North 10.4 mph - N/A   Overcast
1:55 AM 23.0 °F 13.9 °F 21.2 °F 93% 30.17 in 10.0 mi North 8.1 mph - N/A   Overcast
2:15 AM 23.0 °F 13.9 °F 21.2 °F 93% 30.16 in 10.0 mi North 8.1 mph - N/A   Overcast
2:35 AM 23.0 °F 12.4 °F 21.2 °F 93% 30.16 in 10.0 mi North 10.4 mph - N/A   Overcast
2:55 AM 23.0 °F 11.7 °F 21.2 °F 93% 30.17 in 10.0 mi North 11.5 mph 17.3 mph N/A   Overcast
3:15 AM 23.0 °F 13.1 °F 21.2 °F 93% 30.17 in 10.0 mi North 9.2 mph - N/A   Overcast
3:35 AM 23.0 °F 14.7 °F 21.2 °F 93% 30.18 in 10.0 mi North 6.9 mph - N/A   Overcast
3:55 AM 23.0 °F 13.9 °F 21.2 °F 93% 30.17 in 10.0 mi North 8.1 mph - N/A   Overcast
4:15 AM 23.0 °F 14.7 °F 21.2 °F 93% 30.18 in 10.0 mi NW 6.9 mph - N/A   Overcast
4:35 AM 23.0 °F 14.7 °F 21.2 °F 93% 30.19 in 10.0 mi NW 6.9 mph - N/A   Overcast
5:45 AM 23.0 °F 11.7 °F 21.2 °F 93% 30.22 in 10.0 mi NNW 11.5 mph - N/A   Overcast
6:45 AM 24.8 °F 16.1 °F 21.2 °F 86% 30.23 in 10.0 mi NNW 8.1 mph - N/A   Overcast
7:52 AM 24.8 °F 15.3 °F 21.2 °F 86% 30.24 in 10.0 mi NNW 9.2 mph - N/A   Overcast
8:52 AM 24.8 °F 14.6 °F 21.2 °F 86% 30.26 in 10.0 mi NNW 10.4 mph - N/A   Overcast
9:45 AM 24.8 °F 14.0 °F 21.2 °F 86% 30.27 in 10.0 mi NNW 11.5 mph - N/A   Overcast
10:52 AM 26.6 °F 16.8 °F 21.2 °F 80% 30.27 in 10.0 mi NNW 10.4 mph - N/A   Overcast
11:45 AM 28.4 °F 20.4 °F 23.0 °F 80% 30.27 in 10.0 mi NW 8.1 mph - N/A   Overcast
12:45 PM 28.4 °F 19.1 °F 23.0 °F 80% 30.26 in 10.0 mi NW 10.4 mph - N/A   Overcast
1:55 PM 30.2 °F 21.3 °F 21.2 °F 69% 30.24 in 10.0 mi WNW 10.4 mph 16.1 mph N/A   Overcast
2:45 PM 30.2 °F 20.8 °F 21.2 °F 69% 30.24 in 10.0 mi WNW 11.5 mph - N/A   Mostly Cloudy
3:45 PM 30.2 °F 20.8 °F 19.4 °F 64% 30.24 in 10.0 mi West 11.5 mph - N/A   Mostly Cloudy
4:50 PM 28.4 °F 19.7 °F 17.6 °F 64% 30.24 in 10.0 mi West 9.2 mph - N/A   Clear
5:45 PM 26.6 °F 18.2 °F 17.6 °F 69% 30.25 in 10.0 mi West 8.1 mph - N/A   Clear
6:45 PM 24.8 °F 17.9 °F 15.8 °F 69% 30.26 in 10.0 mi WSW 5.8 mph - N/A   Clear
7:45 PM 23.0 °F 13.9 °F 15.8 °F 74% 30.26 in 10.0 mi West 8.1 mph - N/A   Clear
8:45 PM 19.4 °F 9.5 °F 12.2 °F 74% 30.28 in 10.0 mi West 8.1 mph - N/A   Clear
9:15 PM 21.2 °F 10.9 °F 14.0 °F 74% 30.28 in 10.0 mi WNW 9.2 mph - N/A   Clear
9:35 PM 21.2 °F 12.6 °F 14.0 °F 74% 30.28 in 10.0 mi West 6.9 mph - N/A   Clear
9:45 PM 19.4 °F 11.5 °F 12.2 °F 74% 30.28 in 10.0 mi WNW 5.8 mph - N/A   Clear
9:55 PM 19.4 °F 10.4 °F 14.0 °F 80% 30.28 in 10.0 mi NW 6.9 mph - N/A   Clear
10:15 PM 19.4 °F 10.4 °F 12.2 °F 74% 30.28 in 10.0 mi NW 6.9 mph - N/A   Clear
10:35 PM 19.4 °F 9.5 °F 14.0 °F 80% 30.27 in 10.0 mi NNW 8.1 mph - N/A   Clear
10:55 PM 19.4 °F 9.5 °F 14.0 °F 80% 30.27 in 10.0 mi NNW 8.1 mph - N/A   Clear
11:15 PM 19.4 °F 9.5 °F 14.0 °F 80% 30.27 in 10.0 mi NNW 8.1 mph - N/A   Clear
11:35 PM 19.4 °F 9.5 °F 14.0 °F 80% 30.28 in 10.0 mi NNW 8.1 mph - N/A   Clear
11:55 PM 19.4 °F 9.5 °F 14.0 °F 80% 30.28 in 10.0 mi North 8.1 mph - N/A   Clear